Temperature
16 16 16 16 16 16 16 15 15 15 15 15 14 14 14 14 14 14 14 14 14 14 14 14 14 14 13 13 13 13 13 13 13 12 12 12 12 12 12 12 12 12 12
17 16 16 16 16 16 16 15 15 15 15 15 14 14 14 14 14 14 14 14 13 13 13 13 13 13 13 13 13 13 13 13 13 12 12 12 12 12 12 12 12 12 12
17 17 16 16 16 16 15 15 15 15 15 15 14 14 14 14 14 14 14 13 13 13 13 13 13 13 13 13 13 13 13 12 12 12 12 12 12 12 12 11 11 11 11
17 17 16 16 16 16 15 15 15 15 15 14 14 14 14 14 14 14 14 13 13 13 13 13 13 13 13 13 13 12 12 12 12 12 12 11 11 11 11 11 11 11 11
17 17 17 16 16 16 16 15 15 15 15 14 14 14 14 14 14 14 13 13 13 13 13 13 13 13 13 13 13 12 12 12 12 11 11 11 11 11 11 11 11 11 10
17 17 17 16 16 16 16 15 15 15 15 14 14 14 14 14 14 14 14 13 13 13 13 13 13 13 13 13 13 12 12 12 11 11 11 11 11 10 10 10 10 10 10
17 17 17 16 16 16 15 15 15 15 15 15 14 14 14 14 14 14 13 13 13 13 13 12 12 13 13 12 12 12 12 12 12 11 11 11 10 10 10 10 9 9 9
17 17 17 16 16 16 15 15 15 15 15 15 14 14 14 14 14 14 13 13 13 13 13 12 12 12 12 12 12 12 11 11 11 11 11 11 10 10 10 10 9 9 9
17 17 16 16 16 16 16 15 15 15 15 14 14 14 14 14 14 13 13 13 13 12 12 12 12 12 12 12 12 11 11 11 11 11 11 11 10 10 10 9 9 9 9
17 16 16 16 16 16 15 15 15 15 14 14 14 14 14 13 13 13 13 12 12 12 12 12 12 12 12 12 11 11 10 11 10 10 10 10 10 10 10 9 9 8 8
16 16 16 16 16 15 15 15 15 14 14 14 14 14 13 13 13 13 13 12 12 12 11 11 11 11 11 11 11 11 10 10 10 10 9 9 9 9 9 9 9 8 8
16 16 16 16 16 15 15 15 15 14 14 14 13 13 13 13 13 13 12 12 12 11 11 11 11 11 11 11 11 11 10 10 9 9 9 9 9 9 9 8 8 8 8
16 16 16 15 15 15 15 14 14 14 14 13 13 13 13 13 13 12 12 12 12 11 11 11 11 11 11 10 10 10 10 9 9 9 9 9 9 8 8 8 8 8 7
16 16 15 15 15 15 14 14 14 14 13 13 13 12 12 12 12 12 12 12 11 11 11 10 10 10 10 10 10 9 9 9 9 8 8 8 8 8 8 7 7 7 7
15 15 15 15 14 14 14 14 14 13 13 13 13 12 12 12 12 12 11 11 11 11 10 10 10 9 9 9 9 9 9 8 8 8 8 7 7 7 7 7 7 6 6
15 15 15 14 14 14 14 13 13 13 13 13 12 12 12 11 11 11 11 11 11 10 10 9 9 9 9 9 8 8 8 8 8 7 7 7 7 6 6 6 6 6 5
15 15 14 14 14 14 13 13 13 13 12 12 12 12 11 11 11 11 11 10 10 10 9 9 9 9 8 8 8 8 7 7 7 7 7 6 6 6 6 5 5 5 5
14 14 14 14 14 13 13 13 12 12 12 12 12 11 11 11 10 10 10 10 9 9 9 9 8 8 8 8 8 7 7 7 7 6 6 6 6 5 5 5 5 5 4
14 14 14 13 13 13 12 12 12 11 11 11 11 11 10 10 10 10 9 9 9 9 8 8 8 8 7 7 7 7 6 6 6 6 6 5 5 5 5 5 4 4 4
14 14 13 13 13 12 12 12 11 11 11 10 10 10 10 9 9 9 9 9 8 8 8 7 7 7 7 7 6 6 6 6 5 5 5 5 5 4 4 4 4 4 3
13 13 13 12 12 12 11 11 11 10 10 10 10 10 9 9 9 9 8 8 8 7 7 7 7 6 6 6 6 5 5 5 5 4 4 4 4 4 4 3 3 3 3
13 12 12 12 11 11 11 11 10 10 9 9 9 9 9 8 8 7 7 7 7 7 6 6 6 6 5 5 5 5 4 4 4 4 4 3 3 3 3 3 3 2 2
12 12 11 11 11 11 10 10 10 9 9 8 8 8 8 8 7 7 7 6 6 6 6 5 5 5 5 5 4 4 4 3 3 3 3 3 3 2 2 2 2 2 2
11 11 11 10 10 10 9 9 9 9 8 8 8 8 7 7 7 6 6 6 6 5 5 5 5 4 4 4 4 4 3 3 3 3 2 2 2 2 2 2 2 1 1
10 10 10 10 9 9 9 8 8 8 8 7 7 7 7 6 6 6 5 5 5 5 5 4 4 4 4 3 3 3 3 3 2 2 2 2 2 1 1 1 1 1 1
9 9 9 9 9 8 8 8 7 7 7 7 6 6 6 6 6 5 5 5 4 4 4 4 3 3 3 3 3 2 2 2 2 2 1 1 1 1 1 1 1 1 0
Wind_Speed
7 6 6 5 5 5 4 4 4 3 4 3 3 3 3 3 4 3 3 3 3 4 3 3 3 2 2 2 1 2 1 1 0 0 1 1 2 2 3 4 3 3 4
7 7 7 6 6 5 5 5 5 4 4 4 4 3 3 3 3 3 3 2 2 2 2 2 2 2 1 1 1 1 1 2 1 1 0 1 2 2 3 3 3 3 3
7 7 7 7 6 6 6 5 5 5 5 4 4 4 4 4 3 3 3 3 2 2 1 1 1 1 1 1 0 0 1 1 2 2 1 1 2 2 3 3 3 3 3
8 7 7 7 6 6 6 5 5 5 5 5 4 4 4 4 4 4 3 3 3 2 2 1 1 1 1 1 0 1 1 1 1 2 2 2 2 3 3 3 3 2 3
8 8 7 7 6 6 6 6 5 5 5 4 4 4 4 4 3 3 4 4 4 3 3 2 2 0 2 2 2 1 1 2 2 2 2 2 2 3 3 4 4 4 3
9 8 7 6 6 6 6 6 5 5 5 4 4 5 5 4 3 3 4 4 4 4 3 3 3 3 3 3 1 2 3 3 3 3 3 3 4 4 4 4 5 5 4
9 8 7 7 7 7 6 6 6 6 5 5 5 5 5 4 5 6 6 5 4 4 4 4 3 2 3 4 4 6 4 4 5 5 5 5 5 5 5 6 5 6 6
9 8 8 7 7 7 7 7 6 6 5 5 5 5 5 4 5 6 6 6 5 5 4 4 4 4 3 3 4 4 4 4 4 6 5 5 5 6 6 7 7 7 7
9 9 8 8 8 8 7 7 7 6 6 6 6 6 6 5 6 6 7 5 5 5 5 4 4 4 2 3 5 5 5 4 4 5 5 6 6 6 6 6 6 6 7
9 9 9 8 8 8 8 7 6 6 6 6 6 6 6 6 6 7 8 5 5 5 4 4 3 4 3 4 6 6 6 6 5 5 6 7 8 7 8 7 7 7 7
8 8 8 8 8 8 7 6 6 6 6 6 6 6 6 6 6 7 8 6 5 5 5 4 4 5 5 6 8 7 7 7 7 7 6 6 6 6 6 7 7 7 8
7 7 7 7 6 6 7 6 6 6 6 6 6 5 5 5 5 6 8 8 6 6 5 5 3 4 6 7 7 6 7 7 7 7 7 6 6 6 6 7 8 9 10
7 7 7 7 6 6 7 7 6 6 6 5 5 5 5 4 5 6 7 8 8 6 5 3 3 5 6 7 7 8 8 7 7 7 7 7 7 7 7 6 8 9 11
7 7 6 6 6 6 5 5 5 5 5 5 5 5 5 4 4 4 5 5 6 7 6 5 6 7 7 7 7 7 7 7 7 8 8 7 7 6 7 7 7 7 8
7 6 6 6 6 6 5 4 5 5 4 5 5 5 5 5 4 3 4 4 4 5 5 5 6 6 6 6 6 7 6 7 7 7 8 8 8 7 7 7 7 8 9
6 6 5 5 5 5 5 4 2 2 2 3 3 4 4 2 1 4 5 5 4 4 5 6 7 7 7 7 7 7 7 7 7 8 8 8 8 8 8 8 8 9 10
6 5 4 5 5 5 5 5 4 3 3 3 3 3 3 3 3 5 6 6 6 6 7 7 7 7 8 8 8 8 8 8 8 8 8 9 9 9 9 9 9 9 10
5 4 4 4 5 5 5 5 4 4 4 3 3 4 4 4 4 4 5 5 4 6 7 7 7 7 7 8 8 8 8 8 8 8 9 9 9 9 9 9 10 10 11
4 4 4 4 4 4 4 4 4 4 4 3 2 3 4 5 4 4 5 4 5 6 6 7 7 7 7 8 8 8 8 8 9 9 9 9 9 9 10 10 11 12 11
3 3 3 4 4 4 4 4 4 4 4 3 3 3 2 3 3 4 4 5 6 6 6 6 6 7 7 7 8 8 9 9 9 9 9 9 9 10 11 12 11 11 11
3 3 4 4 4 4 4 4 4 4 4 4 4 3 3 4 4 5 5 5 5 6 6 6 7 7 7 7 7 8 10 9 9 9 9 9 10 10 11 11 11 12 12
3 3 3 4 3 3 3 3 4 4 4 4 3 3 4 4 4 4 4 5 5 5 6 6 7 6 6 7 7 8 9 9 9 9 9 10 10 10 11 11 11 11 11
3 3 3 3 3 3 4 3 3 4 4 4 3 3 3 4 4 4 4 5 5 5 5 5 6 6 6 7 8 8 8 9 9 9 10 10 11 11 11 12 13 13 12
3 3 3 3 3 3 4 4 4 4 4 4 3 3 4 4 4 5 5 4 4 5 5 5 6 7 9 8 8 8 8 9 10 10 12 12 12 11 11 11 12 13 13
3 3 3 3 3 3 3 3 3 3 3 3 3 4 4 4 4 4 4 4 5 5 6 6 6 7 9 10 9 9 9 11 11 11 12 11 12 12 12 13 12 13 13
2 2 2 2 2 2 3 3 3 3 3 3 3 3 4 4 4 4 4 4 5 5 6 6 7 9 10 10 10 11 11 12 13 14 13 11 11 11 11 11 13 12 13
Wind_Direction
193 191 190 192 192 193 196 191 191 185 180 180 177 170 156 149 142 135 127 120 118 113 112 106 99 79 79 72 59 50 36 21 99 41 36 23 18 1 7 358 2 4 33
191 188 189 184 187 193 193 193 191 188 189 190 183 183 170 163 160 155 152 139 131 120 119 121 113 107 84 48 32 48 33 352 316 296 327 343 342 346 342 340 348 359 15
187 188 187 188 192 196 195 190 193 194 193 194 195 192 185 181 176 176 175 170 167 161 168 165 152 142 139 100 14 22 11 341 314 289 313 333 325 334 328 324 332 340 342
186 190 193 195 197 198 193 190 192 194 196 198 197 195 193 191 191 189 194 198 199 199 203 212 225 237 265 262 253 292 288 284 290 290 298 310 315 318 313 316 317 322 327
189 193 198 197 194 192 185 190 190 192 200 197 194 195 194 201 206 208 204 211 212 207 206 214 214 14 9 335 312 302 283 272 269 276 281 290 297 306 312 311 310 310 309
192 194 193 194 189 190 190 189 187 189 196 192 196 198 201 206 169 211 237 221 216 216 220 219 202 200 190 199 252 309 311 283 281 277 279 286 295 298 302 300 306 308 309
194 192 189 189 188 192 190 188 189 189 188 193 199 202 209 196 176 202 227 235 230 233 233 225 222 217 218 223 208 216 232 252 268 275 279 287 292 300 296 294 296 297 299
195 192 190 191 190 190 191 193 198 198 193 197 202 206 212 203 185 203 216 228 235 237 237 237 234 233 233 243 240 246 252 247 246 253 268 280 290 295 287 288 293 289 285
195 196 193 194 192 192 195 199 200 200 200 202 205 209 213 209 188 202 216 224 232 234 233 238 241 239 207 243 246 251 255 255 245 249 268 275 282 285 286 279 281 283 288
198 200 196 194 194 197 201 203 199 200 206 207 209 216 219 223 184 198 221 225 233 234 230 229 227 237 217 237 245 252 257 262 264 255 248 248 256 252 245 258 270 277 286
197 196 194 194 196 198 200 201 200 200 205 211 212 217 221 224 192 193 218 229 234 238 236 235 228 200 220 236 253 257 266 276 269 268 268 266 264 264 259 257 260 263 271
185 188 191 191 191 192 194 199 201 200 203 209 214 218 221 218 218 202 210 228 254 245 246 245 235 201 225 239 246 257 267 269 267 266 266 267 267 268 267 269 266 263 264
181 186 188 188 188 190 191 192 196 202 209 214 217 222 223 219 209 202 209 219 235 244 250 252 243 223 232 239 237 246 251 256 260 263 267 271 273 275 277 275 270 267 267
183 186 186 187 186 188 190 195 198 203 210 215 218 224 228 225 226 217 217 220 221 235 245 236 229 236 240 251 250 246 249 254 259 264 270 273 276 276 273 273 272 273 271
187 185 187 187 187 189 191 198 207 209 215 220 223 227 231 232 232 237 232 228 233 237 243 245 248 248 250 251 254 256 254 253 255 260 267 271 272 272 271 269 269 271 271
187 186 185 184 185 187 189 189 173 219 194 221 264 261 239 245 218 209 228 244 246 235 243 248 251 253 256 259 260 260 257 258 261 264 267 270 271 272 274 272 267 267 270
191 184 182 186 187 191 194 197 196 187 175 190 210 230 248 238 219 219 221 226 230 226 242 252 256 258 260 262 263 263 264 265 266 266 266 268 269 271 272 273 271 270 272
190 181 183 188 191 194 198 203 205 204 203 215 205 206 214 219 219 222 220 220 234 231 249 258 261 263 263 264 264 265 265 266 264 265 266 269 269 270 271 271 271 273 276
188 186 188 191 194 196 198 203 208 214 219 222 220 202 202 210 207 213 211 240 251 254 256 261 265 267 267 268 268 267 266 267 267 266 266 268 269 271 271 272 273 273 273
189 176 185 192 195 197 200 205 212 217 223 226 230 236 213 224 243 240 238 250 257 262 266 268 270 272 272 270 270 269 269 268 269 268 269 269 270 270 271 272 273 275 274
190 180 179 196 200 203 208 214 219 224 230 235 238 232 230 234 242 247 249 252 259 266 271 274 275 276 277 277 274 273 273 274 273 273 273 272 272 270 270 271 272 272 274
193 193 194 200 204 208 213 220 225 229 234 239 247 230 212 240 249 254 258 264 268 272 277 278 279 281 281 281 282 281 278 278 279 278 278 277 274 271 272 271 272 273 274
194 193 196 202 206 201 213 221 226 233 239 241 242 243 236 246 253 260 267 272 275 277 279 279 283 286 288 288 288 286 284 282 283 285 283 281 278 276 274 272 272 275 275
198 200 202 204 207 212 217 224 228 235 242 245 246 247 249 251 258 265 272 277 279 279 279 281 282 284 286 289 291 290 291 297 298 290 284 282 279 276 274 273 273 274 274
195 201 209 212 212 218 226 233 239 242 245 249 252 255 258 261 264 269 272 275 279 280 282 282 282 284 287 289 290 293 301 303 298 296 291 284 278 275 274 274 274 276 275
194 204 217 223 228 232 237 242 246 250 253 257 262 266 270 272 273 275 278 281 285 286 286 285 287 291 293 293 294 299 300 297 294 292 290 285 280 276 277 278 278 275 276
Height
1566 1568 1569 1570 1570 1571 1571 1571 1571 1571 1571 1571 1572 1572 1571 1571 1571 1571 1571 1571 1571 1571 1571 1570 1570 1570 1570 1570 1570 1569 1569 1569 1569 1568 1567 1566 1564 1563 1561 1560 1558 1557 1555
1564 1566 1567 1568 1569 1569 1569 1570 1570 1570 1570 1571 1571 1571 1571 1571 1571 1571 1571 1571 1571 1571 1571 1571 1571 1570 1570 1570 1570 1569 1569 1568 1569 1568 1567 1565 1564 1562 1561 1559 1558 1556 1554
1562 1564 1565 1566 1567 1567 1568 1568 1568 1569 1569 1570 1570 1570 1570 1570 1570 1570 1571 1571 1571 1571 1571 1571 1571 1571 1570 1570 1569 1569 1568 1568 1567 1567 1566 1564 1563 1561 1560 1558 1557 1555 1554
1560 1561 1563 1564 1565 1565 1566 1566 1567 1567 1568 1568 1569 1569 1569 1569 1569 1570 1570 1570 1570 1570 1570 1570 1570 1570 1570 1569 1569 1568 1568 1567 1566 1565 1565 1563 1562 1560 1559 1557 1556 1554 1552
1557 1559 1560 1562 1562 1563 1564 1564 1565 1565 1566 1566 1567 1567 1567 1567 1568 1568 1569 1569 1569 1569 1569 1569 1568 1568 1568 1568 1567 1567 1566 1566 1565 1564 1563 1562 1561 1559 1558 1556 1555 1553 1551
1554 1556 1557 1559 1560 1560 1561 1562 1563 1563 1564 1564 1565 1565 1565 1566 1566 1567 1567 1567 1568 1568 1568 1567 1567 1566 1566 1565 1565 1565 1564 1564 1563 1562 1562 1561 1559 1558 1556 1554 1553 1551 1549
1552 1553 1555 1556 1557 1558 1559 1560 1561 1561 1562 1562 1563 1563 1564 1564 1564 1565 1565 1566 1566 1566 1566 1566 1565 1564 1564 1564 1563 1562 1562 1561 1560 1560 1559 1558 1557 1555 1553 1552 1550 1548 1546
1549 1550 1552 1553 1554 1555 1556 1557 1558 1559 1560 1560 1561 1561 1562 1562 1562 1563 1563 1563 1564 1564 1563 1563 1563 1562 1562 1561 1561 1560 1559 1558 1557 1556 1556 1554 1553 1552 1550 1549 1547 1545 1543
1546 1547 1549 1550 1552 1553 1553 1555 1556 1557 1557 1558 1559 1559 1559 1560 1560 1560 1561 1561 1561 1560 1560 1560 1560 1559 1559 1558 1558 1557 1556 1555 1554 1553 1551 1550 1549 1548 1546 1545 1543 1542 1540
1542 1544 1546 1547 1549 1550 1551 1552 1553 1554 1555 1555 1556 1556 1557 1557 1557 1558 1558 1558 1558 1558 1557 1557 1556 1556 1556 1555 1554 1554 1553 1552 1551 1549 1548 1546 1545 1543 1542 1541 1539 1538 1536
1540 1542 1543 1544 1546 1547 1548 1549 1550 1551 1552 1552 1553 1553 1554 1554 1554 1554 1555 1555 1555 1554 1554 1553 1553 1553 1552 1551 1551 1550 1549 1548 1547 1545 1544 1542 1541 1539 1538 1536 1534 1533 1531
1537 1539 1540 1542 1543 1544 1545 1546 1547 1548 1548 1549 1549 1550 1550 1551 1551 1551 1551 1551 1551 1551 1550 1550 1549 1549 1548 1547 1546 1545 1544 1543 1542 1541 1539 1538 1536 1534 1533 1531 1529 1528 1526
1534 1536 1537 1539 1540 1541 1542 1543 1544 1544 1545 1545 1546 1546 1546 1547 1547 1547 1547 1547 1547 1547 1546 1546 1545 1544 1544 1543 1542 1541 1540 1539 1537 1536 1534 1533 1531 1529 1528 1526 1524 1522 1520
1532 1533 1534 1536 1537 1538 1538 1539 1540 1541 1541 1542 1542 1542 1543 1543 1543 1543 1543 1543 1543 1542 1542 1541 1541 1540 1539 1538 1537 1536 1534 1533 1532 1530 1529 1527 1526 1524 1522 1520 1518 1516 1514
1529 1530 1532 1533 1533 1534 1535 1536 1536 1537 1538 1538 1539 1539 1539 1539 1539 1539 1539 1539 1539 1538 1537 1536 1536 1535 1534 1533 1532 1530 1529 1528 1526 1525 1523 1522 1520 1518 1516 1514 1512 1510 1509
1526 1527 1528 1529 1530 1531 1532 1533 1533 1534 1534 1535 1535 1535 1535 1536 1535 1535 1535 1535 1534 1534 1533 1532 1531 1530 1529 1528 1526 1525 1524 1522 1521 1519 1518 1516 1514 1512 1511 1509 1507 1505 1502
1524 1524 1525 1526 1527 1528 1528 1529 1529 1530 1530 1530 1531 1531 1531 1531 1531 1531 1531 1530 1530 1529 1528 1527 1526 1525 1524 1522 1521 1519 1518 1517 1515 1513 1512 1510 1508 1507 1505 1503 1501 1499 1496
1521 1522 1522 1523 1524 1524 1525 1525 1526 1526 1526 1526 1527 1527 1527 1527 1527 1527 1526 1526 1525 1524 1523 1522 1520 1519 1518 1516 1515 1513 1512 1510 1509 1507 1505 1504 1502 1500 1498 1496 1495 1492 1490
1518 1519 1519 1520 1521 1521 1522 1522 1522 1522 1523 1523 1523 1523 1523 1523 1523 1522 1522 1521 1520 1519 1517 1516 1515 1514 1512 1511 1509 1507 1505 1504 1502 1500 1499 1497 1495 1494 1492 1490 1488 1486 1484
1515 1516 1516 1517 1517 1518 1518 1518 1519 1519 1519 1519 1518 1518 1518 1518 1518 1517 1516 1516 1515 1514 1513 1511 1509 1508 1506 1504 1502 1501 1499 1497 1495 1494 1492 1490 1488 1486 1484 1482 1481 1479 1476
1512 1512 1513 1514 1514 1514 1515 1515 1515 1515 1515 1515 1515 1514 1514 1514 1513 1512 1511 1511 1510 1509 1507 1506 1504 1502 1500 1498 1496 1494 1492 1490 1488 1487 1485 1483 1481 1479 1477 1475 1473 1471 1469
1509 1509 1510 1510 1510 1511 1511 1511 1511 1511 1511 1511 1510 1510 1509 1509 1508 1507 1507 1506 1504 1503 1502 1500 1498 1496 1494 1492 1490 1487 1485 1483 1481 1479 1477 1475 1473 1471 1469 1467 1465 1463 1461
1505 1506 1506 1506 1507 1507 1507 1507 1507 1507 1507 1507 1506 1505 1505 1504 1503 1503 1502 1500 1499 1497 1496 1494 1492 1490 1488 1485 1483 1481 1479 1477 1475 1472 1470 1467 1465 1463 1461 1459 1457 1455 1453
1502 1502 1502 1503 1503 1503 1503 1503 1503 1503 1502 1502 1502 1501 1500 1499 1499 1498 1497 1495 1494 1492 1490 1488 1486 1484 1481 1479 1477 1475 1472 1470 1467 1465 1462 1460 1457 1455 1453 1450 1448 1447 1445
1498 1499 1499 1499 1499 1499 1499 1499 1499 1498 1498 1498 1497 1496 1496 1495 1494 1493 1491 1490 1488 1486 1484 1482 1480 1478 1475 1473 1471 1468 1466 1463 1461 1458 1455 1452 1449 1447 1445 1443 1441 1438 1437
1495 1495 1495 1495 1495 1495 1495 1495 1494 1494 1493 1493 1492 1492 1491 1490 1489 1487 1486 1484 1483 1481 1479 1476 1474 1472 1469 1467 1464 1462 1459 1456 1454 1451 1448 1444 1442 1439 1437 1435 1433 1431 1429